Regional Weather Roundup
Issued by NWS

Home | Current Version | Previous Version | Graphics & Text | Print | Product List | Glossary On
Versions: 1 2 3 4 5 6 7 8 9 10 11 12 13 14 15 16 17 18 19 20 21 22 23 24 25 26 27 28 29 30 31 32 33 34 35 36 37 38 39 40 41 42 43 44 45 46 47 48 49 50
000
ASUS43 KBIS 250920
RWRND

NORTH DAKOTA REGIONAL WEATHER ROUNDUP
NATIONAL WEATHER SERVICE BISMARCK ND
400 AM CDT FRI JUL 25 2014

NOTE: "FAIR" INDICATES FEW OR NO CLOUDS BELOW 12,000 FEET WITH NO
SIGNIFICANT WEATHER AND/OR OBSTRUCTIONS TO VISIBILITY.


NDZ001>003-009>011-017-251000-
NORTHWEST NORTH DAKOTA

CITY           SKY/WX    TMP DP  RH WIND       PRES   REMARKS
WILLISTON      CLEAR     55  51  86 CALM      29.84R
MINOT          MOCLDY    67  65  93 SW9       29.73R
MINOT AFB      MOCLDY    65  65 100 W8        29.73R
$$

NDZ018>021-031>035-040>046-251000-
SOUTHWEST NORTH DAKOTA

CITY           SKY/WX    TMP DP  RH WIND       PRES   REMARKS
BISMARCK       CLEAR     67  63  87 NE7       29.76R
DICKINSON      CLEAR     56  52  86 NW9       29.85R
GARRISON         N/A     67  66  97 SE6       29.77R
HETTINGER ARPT CLEAR     62  53  72 NW20G30   29.84R
$$

NDZ004>008-012>016-024-026-027-054-251000-
NORTHEAST NORTH DAKOTA

CITY           SKY/WX    TMP DP  RH WIND       PRES   REMARKS
GRAND FORKS    MOCLDY    68  62  81 SE16      29.70F
GRND FRKS AFB  MOCLDY    67  65  94 S9        29.73F
DEVILS LAKE    CLOUDY    66  61  82 SE15      29.74S
$$

NDZ022-023-025-028>030-036>039-047>053-251000-
SOUTHEAST NORTH DAKOTA

CITY           SKY/WX    TMP DP  RH WIND       PRES   REMARKS
FARGO          CLOUDY    68  61  78 SE7       29.74S
JAMESTOWN      MOCLDY    64  62  93 E9        29.74R
$$



USA.gov is the U.S. government's official web portal to all federal, state and local government web resources and services.